Location: The Saddle
(36.8333°N, 80.3417°W)
Time: 18:11:35
(UTC-05:00)

Vanguard 2 Rocket - Pass Details

Date: 26 September 2023
Orbit: 553 x 3312 km, 32.9° (Epoch: 04 December)

Event Time Altitude Azimuth Distance (km) Brightness Sun altitude
Rises 20:43:10 0° 278° (W) 6,596 13.0 -18.9°
Reaches altitude 10° 20:51:56 10° 254° (WSW) 4,871 11.4 -20.6°
Maximum altitude 20:56:09 12° 235° (SW) 4,286 10.8 -21.4°
Drops below altitude 10° 20:59:49 10° 215° (SW) 4,062 10.4 -22.1°
Sets 21:05:24 0° 186° (S) 4,400 10.3 -23.2°
